Time,TemperatureF,DewpointF,PressureIn,WindDirection,WindDirectionDegrees,WindSpeedMPH,WindSpeedGustMPH,Humidity,HourlyPrecipIn,Conditions,Clouds,dailyrainin,SoftwareType,DateUTC
2013-04-13 00:00:00,39.3,35.5,29.93,WSW,255,3.0,3.0,86,0.00,,,0.00,Wunderground v.1.15,2013-04-13 05:00:00,
2013-04-13 00:10:00,39.4,35.6,29.94,West,269,4.0,4.0,86,0.00,,,0.00,Wunderground v.1.15,2013-04-13 05:10:00,
2013-04-13 00:15:00,39.4,35.6,29.94,WSW,249,4.0,8.0,86,0.00,,,0.00,Wunderground v.1.15,2013-04-13 05:15:00,
2013-04-13 00:25:00,39.3,35.8,29.94,SW,235,5.0,5.0,87,0.00,,,0.00,Wunderground v.1.15,2013-04-13 05:25:00,
2013-04-13 00:30:00,39.2,35.7,29.94,WSW,253,4.0,7.0,87,0.00,,,0.00,Wunderground v.1.15,2013-04-13 05:30:00,
2013-04-13 00:35:00,39.1,35.6,29.94,West,263,4.0,7.0,87,0.00,,,0.00,Wunderground v.1.15,2013-04-13 05:35:00,
2013-04-13 00:40:00,39.1,35.0,29.95,WSW,238,5.0,6.0,85,0.00,,,0.00,Wunderground v.1.15,2013-04-13 05:40:00,
2013-04-13 00:45:00,39.1,35.0,29.95,SW,231,5.0,6.0,85,0.00,,,0.00,Wunderground v.1.15,2013-04-13 05:45:00,
2013-04-13 00:50:00,39.1,35.0,29.95,WSW,249,5.0,5.0,85,0.00,,,0.00,Wunderground v.1.15,2013-04-13 05:50:00,
2013-04-13 00:55:00,39.1,34.7,29.95,SW,235,5.0,5.0,84,0.00,,,0.00,Wunderground v.1.15,2013-04-13 05:55:00,
2013-04-13 01:00:00,39.1,34.1,29.94,West,263,5.0,5.0,82,0.00,,,0.00,Wunderground v.1.15,2013-04-13 06:00:00,
2013-04-13 01:10:00,39.2,32.9,29.94,WSW,256,4.0,8.0,78,0.00,,,0.00,Wunderground v.1.15,2013-04-13 06:10:00,
2013-04-13 01:15:00,39.2,32.9,29.95,WSW,249,4.0,8.0,78,0.00,,,0.00,Wunderground v.1.15,2013-04-13 06:15:00,
2013-04-13 01:20:00,39.1,33.1,29.95,WSW,246,3.0,4.0,79,0.00,,,0.00,Wunderground v.1.15,2013-04-13 06:20:00,
2013-04-13 01:25:00,39.0,33.4,29.95,West,276,3.0,4.0,80,0.00,,,0.00,Wunderground v.1.15,2013-04-13 06:25:00,
2013-04-13 01:30:00,38.9,33.6,29.95,WSW,246,3.0,3.0,81,0.00,,,0.00,Wunderground v.1.15,2013-04-13 06:30:00,
2013-04-13 01:35:00,38.7,33.7,29.95,WSW,242,4.0,4.0,82,0.00,,,0.00,Wunderground v.1.15,2013-04-13 06:35:00,
2013-04-13 01:40:00,38.8,33.8,29.95,WSW,255,4.0,4.0,82,0.00,,,0.00,Wunderground v.1.15,2013-04-13 06:40:00,
2013-04-13 01:45:00,38.8,33.8,29.94,West,266,4.0,4.0,82,0.00,,,0.00,Wunderground v.1.15,2013-04-13 06:45:00,
2013-04-13 01:50:00,38.8,34.1,29.94,WSW,238,4.0,8.0,83,0.00,,,0.00,Wunderground v.1.15,2013-04-13 06:50:00,
2013-04-13 01:55:00,38.7,34.0,29.94,WSW,257,5.0,8.0,83,0.00,,,0.00,Wunderground v.1.15,2013-04-13 06:55:00,
2013-04-13 02:00:00,38.8,34.1,29.94,WSW,241,5.0,6.0,83,0.00,,,0.00,Wunderground v.1.15,2013-04-13 07:00:00,
2013-04-13 02:05:00,38.7,34.0,29.94,WSW,249,5.0,6.0,83,0.00,,,0.00,Wunderground v.1.15,2013-04-13 07:05:00,
2013-04-13 02:15:00,38.7,33.7,29.93,WSW,256,5.0,7.0,82,0.00,,,0.00,Wunderground v.1.15,2013-04-13 07:15:00,
2013-04-13 02:20:00,38.8,33.8,29.93,WNW,288,5.0,5.0,82,0.00,,,0.00,Wunderground v.1.15,2013-04-13 07:20:00,
2013-04-13 02:25:00,38.8,33.8,29.93,WSW,243,5.0,5.0,82,0.00,,,0.00,Wunderground v.1.15,2013-04-13 07:25:00,
2013-04-13 02:30:00,38.8,33.5,29.92,WSW,251,6.0,8.0,81,0.00,,,0.00,Wunderground v.1.15,2013-04-13 07:30:00,
2013-04-13 02:40:00,38.8,33.2,29.92,West,263,6.0,6.0,80,0.00,,,0.00,Wunderground v.1.15,2013-04-13 07:40:00,
2013-04-13 02:45:00,38.7,33.4,29.92,West,269,5.0,6.0,81,0.00,,,0.00,Wunderground v.1.15,2013-04-13 07:45:00,
2013-04-13 02:50:00,38.6,33.3,29.92,WSW,243,5.0,5.0,81,0.00,,,0.00,Wunderground v.1.15,2013-04-13 07:50:00,
2013-04-13 02:55:00,38.5,33.5,29.93,WSW,242,4.0,6.0,82,0.00,,,0.00,Wunderground v.1.15,2013-04-13 07:55:00,
2013-04-13 03:00:00,38.5,33.5,29.92,West,262,4.0,4.0,82,0.00,,,0.00,Wunderground v.1.15,2013-04-13 08:00:00,
2013-04-13 03:10:00,38.5,32.9,29.92,West,265,3.0,3.0,80,0.00,,,0.00,Wunderground v.1.15,2013-04-13 08:10:00,
2013-04-13 03:20:00,38.4,33.1,29.93,West,264,4.0,4.0,81,0.00,,,0.00,Wunderground v.1.15,2013-04-13 08:20:00,
2013-04-13 03:25:00,38.3,33.3,29.93,WSW,245,4.0,4.0,82,0.00,,,0.00,Wunderground v.1.15,2013-04-13 08:25:00,
2013-04-13 03:30:00,38.3,33.3,29.93,West,262,4.0,4.0,82,0.00,,,0.00,Wunderground v.1.15,2013-04-13 08:30:00,
2013-04-13 03:35:00,38.2,33.2,29.93,WSW,255,3.0,4.0,82,0.00,,,0.00,Wunderground v.1.15,2013-04-13 08:35:00,
2013-04-13 03:40:00,38.3,33.0,29.92,WSW,237,4.0,4.0,81,0.00,,,0.00,Wunderground v.1.15,2013-04-13 08:40:00,
2013-04-13 03:45:00,38.3,33.3,29.92,West,279,4.0,4.0,82,0.00,,,0.00,Wunderground v.1.15,2013-04-13 08:45:00,
2013-04-13 03:55:00,38.2,33.5,29.92,NW,307,3.0,4.0,83,0.00,,,0.00,Wunderground v.1.15,2013-04-13 08:55:00,
2013-04-13 04:00:00,38.1,33.7,29.92,West,264,2.0,2.0,84,0.00,,,0.00,Wunderground v.1.15,2013-04-13 09:00:00,
2013-04-13 04:05:00,38.0,33.9,29.93,WSW,248,1.0,2.0,85,0.00,,,0.00,Wunderground v.1.15,2013-04-13 09:05:00,
2013-04-13 04:15:00,37.8,33.7,29.93,WNW,285,2.0,2.0,85,0.00,,,0.00,Wunderground v.1.15,2013-04-13 09:15:00,
2013-04-13 04:20:00,37.8,33.7,29.94,West,262,2.0,3.0,85,0.00,,,0.00,Wunderground v.1.15,2013-04-13 09:20:00,
2013-04-13 04:25:00,37.8,32.8,29.93,WSW,251,3.0,6.0,82,0.00,,,0.00,Wunderground v.1.15,2013-04-13 09:25:00,
2013-04-13 04:30:00,37.8,33.1,29.94,WSW,256,5.0,7.0,83,0.00,,,0.00,Wunderground v.1.15,2013-04-13 09:30:00,
2013-04-13 04:35:00,37.8,33.1,29.94,WSW,255,5.0,7.0,83,0.00,,,0.00,Wunderground v.1.15,2013-04-13 09:35:00,
2013-04-13 04:40:00,37.8,32.2,29.93,West,267,6.0,6.0,80,0.00,,,0.00,Wunderground v.1.15,2013-04-13 09:40:00,
2013-04-13 04:45:00,37.7,31.8,29.94,WSW,252,7.0,10.0,79,0.00,,,0.00,Wunderground v.1.15,2013-04-13 09:45:00,
2013-04-13 04:50:00,37.6,31.0,29.94,West,270,8.0,8.0,77,0.00,,,0.00,Wunderground v.1.15,2013-04-13 09:50:00,
2013-04-13 04:55:00,37.4,30.8,29.94,WSW,253,8.0,9.0,77,0.00,,,0.00,Wunderground v.1.15,2013-04-13 09:55:00,
2013-04-13 05:00:00,37.3,31.1,29.94,WSW,250,7.0,7.0,78,0.00,,,0.00,Wunderground v.1.15,2013-04-13 10:00:00,
2013-04-13 05:10:00,37.1,31.5,29.94,NW,304,7.0,7.0,80,0.00,,,0.00,Wunderground v.1.15,2013-04-13 10:10:00,
2013-04-13 05:20:00,36.8,30.6,29.94,West,271,5.0,5.0,78,0.00,,,0.00,Wunderground v.1.15,2013-04-13 10:20:00,
2013-04-13 05:25:00,36.6,30.4,29.94,WNW,285,6.0,6.0,78,0.00,,,0.00,Wunderground v.1.15,2013-04-13 10:25:00,
2013-04-13 05:35:00,36.3,30.1,29.94,West,274,5.0,6.0,78,0.00,,,0.00,Wunderground v.1.15,2013-04-13 10:35:00,
2013-04-13 05:40:00,36.3,30.1,29.94,NW,318,5.0,5.0,78,0.00,,,0.00,Wunderground v.1.15,2013-04-13 10:40:00,
2013-04-13 05:45:00,36.2,30.3,29.94,West,281,5.0,5.0,79,0.00,,,0.00,Wunderground v.1.15,2013-04-13 10:45:00,
2013-04-13 05:50:00,36.1,30.5,29.94,NNW,343,4.0,4.0,80,0.00,,,0.00,Wunderground v.1.15,2013-04-13 10:50:00,
2013-04-13 05:55:00,36.0,30.4,29.94,SW,225,4.0,4.0,80,0.00,,,0.00,Wunderground v.1.15,2013-04-13 10:55:00,
2013-04-13 06:00:00,36.0,30.4,29.94,SW,217,4.0,12.0,80,0.00,,,0.00,Wunderground v.1.15,2013-04-13 11:00:00,
2013-04-13 06:10:00,36.0,30.4,29.94,West,281,5.0,5.0,80,0.00,,,0.00,Wunderground v.1.15,2013-04-13 11:10:00,
2013-04-13 06:15:00,35.9,30.3,29.95,West,262,4.0,5.0,80,0.00,,,0.00,Wunderground v.1.15,2013-04-13 11:15:00,
2013-04-13 06:25:00,35.9,30.3,29.95,West,264,4.0,4.0,80,0.00,,,0.00,Wunderground v.1.15,2013-04-13 11:25:00,
2013-04-13 06:30:00,35.8,30.2,29.95,West,274,4.0,7.0,80,0.00,,,0.00,Wunderground v.1.15,2013-04-13 11:30:00,
2013-04-13 06:35:00,35.8,29.9,29.95,West,274,4.0,7.0,79,0.00,,,0.00,Wunderground v.1.15,2013-04-13 11:35:00,
2013-04-13 06:40:00,35.8,29.9,29.96,WNW,302,5.0,5.0,79,0.00,,,0.00,Wunderground v.1.15,2013-04-13 11:40:00,
2013-04-13 06:45:00,35.7,29.5,29.96,West,275,5.0,5.0,78,0.00,,,0.00,Wunderground v.1.15,2013-04-13 11:45:00,
2013-04-13 06:50:00,35.5,28.4,29.96,WNW,294,5.0,10.0,75,0.00,,,0.00,Wunderground v.1.15,2013-04-13 11:50:00,
2013-04-13 06:55:00,35.4,28.3,29.96,NNW,330,6.0,10.0,75,0.00,,,0.00,Wunderground v.1.15,2013-04-13 11:55:00,
2013-04-13 07:00:00,35.4,27.6,29.97,South,187,6.0,6.0,73,0.00,,,0.00,Wunderground v.1.15,2013-04-13 12:00:00,
2013-04-13 07:05:00,35.3,27.8,29.97,WNW,289,6.0,6.0,74,0.00,,,0.00,Wunderground v.1.15,2013-04-13 12:05:00,
2013-04-13 07:10:00,35.2,27.7,29.97,WNW,288,6.0,6.0,74,0.00,,,0.00,Wunderground v.1.15,2013-04-13 12:10:00,
2013-04-13 07:15:00,35.2,28.1,29.97,WSW,255,6.0,6.0,75,0.00,,,0.00,Wunderground v.1.15,2013-04-13 12:15:00,
2013-04-13 07:20:00,35.2,28.1,29.97,WNW,284,6.0,6.0,75,0.00,,,0.00,Wunderground v.1.15,2013-04-13 12:20:00,
2013-04-13 07:30:00,35.3,27.8,29.98,West,277,5.0,9.0,74,0.00,,,0.00,Wunderground v.1.15,2013-04-13 12:30:00,
2013-04-13 07:35:00,35.3,27.8,29.98,West,260,5.0,9.0,74,0.00,,,0.00,Wunderground v.1.15,2013-04-13 12:35:00,
2013-04-13 07:40:00,35.4,27.9,29.98,West,267,6.0,6.0,74,0.00,,,0.00,Wunderground v.1.15,2013-04-13 12:40:00,
2013-04-13 07:45:00,35.4,28.3,29.98,WNW,283,5.0,6.0,75,0.00,,,0.00,Wunderground v.1.15,2013-04-13 12:45:00,
2013-04-13 07:55:00,35.8,28.6,29.98,NW,304,5.0,6.0,75,0.00,,,0.00,Wunderground v.1.15,2013-04-13 12:55:00,
2013-04-13 08:00:00,36.1,28.3,29.98,West,276,5.0,6.0,73,0.00,,,0.00,Wunderground v.1.15,2013-04-13 13:00:00,
2013-04-13 08:05:00,36.2,28.4,29.98,WSW,249,5.0,12.0,73,0.00,,,0.00,Wunderground v.1.15,2013-04-13 13:05:00,
2013-04-13 08:10:00,36.4,27.9,29.99,WSW,245,5.0,5.0,71,0.00,,,0.00,Wunderground v.1.15,2013-04-13 13:10:00,
2013-04-13 08:25:00,36.9,26.6,29.99,West,269,6.0,6.0,66,0.00,,,0.00,Wunderground v.1.15,2013-04-13 13:25:00,
2013-04-13 08:30:00,37.0,26.3,29.99,WNW,285,6.0,6.0,65,0.00,,,0.00,Wunderground v.1.15,2013-04-13 13:30:00,
2013-04-13 08:40:00,37.6,27.3,29.99,West,265,6.0,6.0,66,0.00,,,0.00,Wunderground v.1.15,2013-04-13 13:40:00,
2013-04-13 08:45:00,37.5,27.2,29.99,WNW,289,6.0,6.0,66,0.00,,,0.00,Wunderground v.1.15,2013-04-13 13:45:00,
2013-04-13 08:50:00,37.3,25.8,29.99,NW,313,7.0,7.0,63,0.00,,,0.00,Wunderground v.1.15,2013-04-13 13:50:00,
2013-04-13 08:55:00,37.4,27.1,30.00,WNW,293,7.0,12.0,66,0.00,,,0.00,Wunderground v.1.15,2013-04-13 13:55:00,
2013-04-13 09:00:00,37.3,26.6,30.00,West,266,7.0,10.0,65,0.00,,,0.00,Wunderground v.1.15,2013-04-13 14:00:00,
2013-04-13 09:10:00,37.5,27.9,30.00,NW,316,7.0,7.0,68,0.00,,,0.00,Wunderground v.1.15,2013-04-13 14:10:00,
2013-04-13 09:15:00,37.7,27.0,30.00,West,267,6.0,7.0,65,0.00,,,0.00,Wunderground v.1.15,2013-04-13 14:15:00,
2013-04-13 09:20:00,37.9,27.9,30.00,WNW,291,7.0,7.0,67,0.00,,,0.00,Wunderground v.1.15,2013-04-13 14:20:00,
2013-04-13 09:25:00,38.0,26.9,29.99,NNW,330,7.0,8.0,64,0.00,,,0.00,Wunderground v.1.15,2013-04-13 14:25:00,
2013-04-13 09:30:00,38.4,27.7,29.99,NW,304,7.0,7.0,65,0.00,,,0.00,Wunderground v.1.15,2013-04-13 14:30:00,
2013-04-13 09:35:00,38.6,27.5,29.99,SE,134,6.0,10.0,64,0.00,,,0.00,Wunderground v.1.15,2013-04-13 14:35:00,
2013-04-13 09:45:00,39.2,27.3,30.00,West,259,6.0,6.0,62,0.00,,,0.00,Wunderground v.1.15,2013-04-13 14:45:00,
2013-04-13 09:50:00,39.2,27.7,30.00,West,274,6.0,8.0,63,0.00,,,0.00,Wunderground v.1.15,2013-04-13 14:50:00,
2013-04-13 09:55:00,39.4,28.6,30.00,WNW,300,6.0,8.0,65,0.00,,,0.00,Wunderground v.1.15,2013-04-13 14:55:00,
2013-04-13 10:00:00,39.5,27.5,30.00,WSW,250,6.0,12.0,62,0.00,,,0.00,Wunderground v.1.15,2013-04-13 15:00:00,
2013-04-13 10:10:00,40.0,28.4,30.00,WNW,294,6.0,6.0,63,0.00,,,0.00,Wunderground v.1.15,2013-04-13 15:10:00,
2013-04-13 10:20:00,40.6,28.6,30.00,West,265,6.0,7.0,62,0.00,,,0.00,Wunderground v.1.15,2013-04-13 15:20:00,
2013-04-13 10:25:00,40.5,28.1,30.00,WSW,241,6.0,8.0,61,0.00,,,0.00,Wunderground v.1.15,2013-04-13 15:25:00,
2013-04-13 10:30:00,40.6,29.4,30.00,WNW,302,7.0,9.0,64,0.00,,,0.00,Wunderground v.1.15,2013-04-13 15:30:00,
2013-04-13 10:35:00,41.1,29.8,30.01,West,277,6.0,9.0,64,0.00,,,0.00,Wunderground v.1.15,2013-04-13 15:35:00,
2013-04-13 10:45:00,41.4,29.3,30.01,WSW,250,6.0,12.0,62,0.00,,,0.00,Wunderground v.1.15,2013-04-13 15:45:00,
2013-04-13 10:55:00,42.0,30.7,30.01,WSW,257,6.0,7.0,64,0.00,,,0.00,Wunderground v.1.15,2013-04-13 15:55:00,
2013-04-13 11:00:00,42.4,29.5,30.01,WNW,284,6.0,13.0,60,0.00,,,0.00,Wunderground v.1.15,2013-04-13 16:00:00,
2013-04-13 11:05:00,41.9,29.0,30.01,WSW,248,7.0,13.0,60,0.00,,,0.00,Wunderground v.1.15,2013-04-13 16:05:00,
2013-04-13 11:10:00,42.2,30.1,30.01,WNW,286,8.0,8.0,62,0.00,,,0.00,Wunderground v.1.15,2013-04-13 16:10:00,
2013-04-13 11:15:00,42.3,30.6,30.01,WNW,288,7.0,8.0,63,0.00,,,0.00,Wunderground v.1.15,2013-04-13 16:15:00,
2013-04-13 11:20:00,42.8,29.9,30.01,West,269,6.0,6.0,60,0.00,,,0.00,Wunderground v.1.15,2013-04-13 16:20:00,
2013-04-13 11:25:00,42.8,30.7,30.01,West,263,8.0,8.0,62,0.00,,,0.00,Wunderground v.1.15,2013-04-13 16:25:00,
2013-04-13 11:30:00,43.1,31.7,30.01,NNW,342,8.0,8.0,64,0.00,,,0.00,Wunderground v.1.15,2013-04-13 16:30:00,
2013-04-13 11:40:00,43.9,31.3,30.01,WNW,287,6.0,6.0,61,0.00,,,0.00,Wunderground v.1.15,2013-04-13 16:40:00,
2013-04-13 11:45:00,43.7,31.1,30.01,West,260,6.0,9.0,61,0.00,,,0.00,Wunderground v.1.15,2013-04-13 16:45:00,
2013-04-13 11:50:00,43.9,30.9,30.01,West,275,7.0,7.0,60,0.00,,,0.00,Wunderground v.1.15,2013-04-13 16:50:00,
2013-04-13 11:55:00,43.8,30.8,30.01,West,264,7.0,7.0,60,0.00,,,0.00,Wunderground v.1.15,2013-04-13 16:55:00,
2013-04-13 12:00:00,44.5,30.6,30.01,WNW,294,6.0,6.0,58,0.00,,,0.00,Wunderground v.1.15,2013-04-13 17:00:00,
2013-04-13 12:05:00,44.2,30.8,30.01,West,274,5.0,7.0,59,0.00,,,0.00,Wunderground v.1.15,2013-04-13 17:05:00,
2013-04-13 12:10:00,44.5,31.1,30.01,WSW,240,6.0,6.0,59,0.00,,,0.00,Wunderground v.1.15,2013-04-13 17:10:00,
2013-04-13 12:15:00,44.9,31.0,30.01,WSW,250,6.0,6.0,58,0.00,,,0.00,Wunderground v.1.15,2013-04-13 17:15:00,
2013-04-13 12:20:00,44.7,30.8,30.01,WSW,255,7.0,8.0,58,0.00,,,0.00,Wunderground v.1.15,2013-04-13 17:20:00,
2013-04-13 12:25:00,45.0,31.9,30.01,West,260,7.0,8.0,60,0.00,,,0.00,Wunderground v.1.15,2013-04-13 17:25:00,
2013-04-13 12:30:00,45.1,31.2,30.00,WNW,287,6.0,6.0,58,0.00,,,0.00,Wunderground v.1.15,2013-04-13 17:30:00,
2013-04-13 12:40:00,46.0,33.3,30.00,SW,233,6.0,9.0,61,0.00,,,0.00,Wunderground v.1.15,2013-04-13 17:40:00,
2013-04-13 12:45:00,45.7,31.3,30.00,NW,309,6.0,9.0,57,0.00,,,0.00,Wunderground v.1.15,2013-04-13 17:45:00,
2013-04-13 12:50:00,46.1,33.4,30.00,NW,322,6.0,6.0,61,0.00,,,0.00,Wunderground v.1.15,2013-04-13 17:50:00,
2013-04-13 12:55:00,46.6,33.0,30.00,West,259,5.0,6.0,59,0.00,,,0.00,Wunderground v.1.15,2013-04-13 17:55:00,
2013-04-13 13:00:00,46.6,32.2,30.00,NNW,334,5.0,6.0,57,0.00,,,0.00,Wunderground v.1.15,2013-04-13 18:00:00,
2013-04-13 13:05:00,46.5,31.6,30.00,West,271,6.0,6.0,56,0.00,,,0.00,Wunderground v.1.15,2013-04-13 18:05:00,
2013-04-13 13:10:00,46.7,32.3,30.00,WSW,255,6.0,6.0,57,0.00,,,0.00,Wunderground v.1.15,2013-04-13 18:10:00,
2013-04-13 13:15:00,46.9,33.7,30.00,West,276,6.0,6.0,60,0.00,,,0.00,Wunderground v.1.15,2013-04-13 18:15:00,
2013-04-13 13:20:00,46.8,32.4,30.00,West,277,6.0,8.0,57,0.00,,,0.00,Wunderground v.1.15,2013-04-13 18:20:00,
2013-04-13 13:25:00,47.1,33.9,30.00,WNW,289,6.0,8.0,60,0.00,,,0.00,Wunderground v.1.15,2013-04-13 18:25:00,
2013-04-13 13:30:00,47.6,33.5,30.00,West,260,6.0,6.0,58,0.00,,,0.00,Wunderground v.1.15,2013-04-13 18:30:00,
2013-04-13 13:40:00,47.4,34.2,29.99,West,274,6.0,6.0,60,0.00,,,0.00,Wunderground v.1.15,2013-04-13 18:40:00,
2013-04-13 13:45:00,47.1,32.6,29.99,WNW,293,6.0,6.0,57,0.00,,,0.00,Wunderground v.1.15,2013-04-13 18:45:00,
2013-04-13 13:50:00,47.4,33.4,29.99,NNW,334,5.0,5.0,58,0.00,,,0.00,Wunderground v.1.15,2013-04-13 18:50:00,
2013-04-13 13:55:00,47.4,33.4,29.99,NW,307,5.0,5.0,58,0.00,,,0.00,Wunderground v.1.15,2013-04-13 18:55:00,
2013-04-13 14:00:00,47.4,33.4,29.99,WSW,242,5.0,9.0,58,0.00,,,0.00,Wunderground v.1.15,2013-04-13 19:00:00,
2013-04-13 14:05:00,47.7,32.8,29.99,WNW,291,6.0,9.0,56,0.00,,,0.00,Wunderground v.1.15,2013-04-13 19:05:00,
2013-04-13 14:10:00,47.5,33.9,29.99,WSW,245,5.0,6.0,59,0.00,,,0.00,Wunderground v.1.15,2013-04-13 19:10:00,
2013-04-13 14:15:00,48.3,33.8,29.99,WSW,243,4.0,8.0,57,0.00,,,0.00,Wunderground v.1.15,2013-04-13 19:15:00,
2013-04-13 14:20:00,48.4,33.4,29.99,West,260,5.0,7.0,56,0.00,,,0.00,Wunderground v.1.15,2013-04-13 19:20:00,
2013-04-13 14:25:00,48.3,33.8,29.99,WSW,240,6.0,7.0,57,0.00,,,0.00,Wunderground v.1.15,2013-04-13 19:25:00,
2013-04-13 14:30:00,48.7,35.0,29.99,WSW,243,7.0,7.0,59,0.00,,,0.00,Wunderground v.1.15,2013-04-13 19:30:00,
2013-04-13 14:35:00,49.2,35.0,29.99,SW,224,8.0,8.0,58,0.00,,,0.00,Wunderground v.1.15,2013-04-13 19:35:00,
2013-04-13 14:40:00,49.0,33.5,29.99,SW,227,8.0,8.0,55,0.00,,,0.00,Wunderground v.1.15,2013-04-13 19:40:00,
2013-04-13 14:45:00,48.5,33.5,29.99,West,262,8.0,8.0,56,0.00,,,0.00,Wunderground v.1.15,2013-04-13 19:45:00,
2013-04-13 14:50:00,48.8,35.1,29.98,WSW,245,7.0,7.0,59,0.00,,,0.00,Wunderground v.1.15,2013-04-13 19:50:00,
2013-04-13 14:55:00,49.6,34.1,29.98,WSW,257,7.0,7.0,55,0.00,,,0.00,Wunderground v.1.15,2013-04-13 19:55:00,
2013-04-13 15:00:00,49.6,34.5,29.98,WSW,256,7.0,7.0,56,0.00,,,0.00,Wunderground v.1.15,2013-04-13 20:00:00,
2013-04-13 15:05:00,49.6,34.5,29.98,SW,224,8.0,9.0,56,0.00,,,0.00,Wunderground v.1.15,2013-04-13 20:05:00,
2013-04-13 15:10:00,48.8,32.9,29.98,WNW,302,7.0,7.0,54,0.00,,,0.00,Wunderground v.1.15,2013-04-13 20:10:00,
2013-04-13 15:15:00,49.4,33.4,29.97,West,266,7.0,7.0,54,0.00,,,0.00,Wunderground v.1.15,2013-04-13 20:15:00,
2013-04-13 15:20:00,49.2,34.6,29.97,WSW,238,7.0,7.0,57,0.00,,,0.00,Wunderground v.1.15,2013-04-13 20:20:00,
2013-04-13 15:25:00,49.8,35.2,29.97,West,262,7.0,7.0,57,0.00,,,0.00,Wunderground v.1.15,2013-04-13 20:25:00,
2013-04-13 15:30:00,49.6,33.2,29.97,WSW,249,6.0,6.0,53,0.00,,,0.00,Wunderground v.1.15,2013-04-13 20:30:00,
2013-04-13 15:35:00,50.2,36.0,29.97,WSW,256,6.0,8.0,58,0.00,,,0.00,Wunderground v.1.15,2013-04-13 20:35:00,
2013-04-13 15:40:00,50.9,34.8,29.97,WNW,286,6.0,6.0,54,0.00,,,0.00,Wunderground v.1.15,2013-04-13 20:40:00,
2013-04-13 15:45:00,51.5,36.3,29.97,NW,323,6.0,6.0,56,0.00,,,0.00,Wunderground v.1.15,2013-04-13 20:45:00,
2013-04-13 15:50:00,51.2,35.6,29.97,West,264,7.0,7.0,55,0.00,,,0.00,Wunderground v.1.15,2013-04-13 20:50:00,
2013-04-13 15:55:00,50.7,34.2,29.97,WSW,238,7.0,7.0,53,0.00,,,0.00,Wunderground v.1.15,2013-04-13 20:55:00,
2013-04-13 16:00:00,51.1,35.9,29.97,WNW,288,7.0,7.0,56,0.00,,,0.00,Wunderground v.1.15,2013-04-13 21:00:00,
2013-04-13 16:05:00,51.2,35.6,29.97,SW,236,7.0,11.0,55,0.00,,,0.00,Wunderground v.1.15,2013-04-13 21:05:00,
2013-04-13 16:10:00,50.9,34.4,29.96,WSW,253,6.0,7.0,53,0.00,,,0.00,Wunderground v.1.15,2013-04-13 21:10:00,
2013-04-13 16:15:00,51.1,34.5,29.96,West,263,7.0,9.0,53,0.00,,,0.00,Wunderground v.1.15,2013-04-13 21:15:00,
2013-04-13 16:20:00,51.2,34.6,29.96,WNW,287,7.0,7.0,53,0.00,,,0.00,Wunderground v.1.15,2013-04-13 21:20:00,
2013-04-13 16:25:00,51.6,34.5,29.96,WSW,255,6.0,7.0,52,0.00,,,0.00,Wunderground v.1.15,2013-04-13 21:25:00,
2013-04-13 16:30:00,51.7,34.6,29.96,WNW,287,5.0,6.0,52,0.00,,,0.00,Wunderground v.1.15,2013-04-13 21:30:00,
2013-04-13 16:35:00,51.9,34.3,29.96,WSW,240,5.0,7.0,51,0.00,,,0.00,Wunderground v.1.15,2013-04-13 21:35:00,
2013-04-13 16:40:00,51.7,34.6,29.97,SW,226,6.0,8.0,52,0.00,,,0.00,Wunderground v.1.15,2013-04-13 21:40:00,
2013-04-13 16:45:00,51.0,34.5,29.96,WSW,238,6.0,8.0,53,0.00,,,0.00,Wunderground v.1.15,2013-04-13 21:45:00,
2013-04-13 16:50:00,51.3,34.7,29.96,WNW,289,5.0,5.0,53,0.00,,,0.00,Wunderground v.1.15,2013-04-13 21:50:00,
2013-04-13 16:55:00,51.5,35.9,29.96,WSW,241,5.0,8.0,55,0.00,,,0.00,Wunderground v.1.15,2013-04-13 21:55:00,
2013-04-13 17:00:00,51.0,34.9,29.96,SW,236,7.0,7.0,54,0.00,,,0.00,Wunderground v.1.15,2013-04-13 22:00:00,
2013-04-13 17:05:00,51.3,36.1,29.96,West,277,5.0,7.0,56,0.00,,,0.00,Wunderground v.1.15,2013-04-13 22:05:00,
2013-04-13 17:10:00,51.5,34.9,29.96,SW,226,4.0,14.0,53,0.00,,,0.00,Wunderground v.1.15,2013-04-13 22:10:00,
2013-04-13 17:15:00,51.3,35.7,29.96,West,273,6.0,14.0,55,0.00,,,0.00,Wunderground v.1.15,2013-04-13 22:15:00,
2013-04-13 17:20:00,51.8,36.6,29.96,WSW,238,6.0,6.0,56,0.00,,,0.00,Wunderground v.1.15,2013-04-13 22:20:00,
2013-04-13 17:25:00,51.8,35.7,29.96,West,267,5.0,6.0,54,0.00,,,0.00,Wunderground v.1.15,2013-04-13 22:25:00,
2013-04-13 17:30:00,51.4,35.8,29.96,WSW,248,6.0,6.0,55,0.00,,,0.00,Wunderground v.1.15,2013-04-13 22:30:00,
2013-04-13 17:35:00,50.9,36.6,29.96,West,266,6.0,6.0,58,0.00,,,0.00,Wunderground v.1.15,2013-04-13 22:35:00,
2013-04-13 17:40:00,50.6,35.9,29.96,WSW,240,5.0,5.0,57,0.00,,,0.00,Wunderground v.1.15,2013-04-13 22:40:00,
2013-04-13 17:45:00,50.7,36.0,29.96,WSW,238,6.0,9.0,57,0.00,,,0.00,Wunderground v.1.15,2013-04-13 22:45:00,
2013-04-13 17:55:00,50.2,35.1,29.96,WSW,243,4.0,6.0,56,0.00,,,0.00,Wunderground v.1.15,2013-04-13 22:55:00,
2013-04-13 18:00:00,50.0,37.1,29.96,WSW,241,5.0,5.0,61,0.00,,,0.00,Wunderground v.1.15,2013-04-13 23:00:00,
2013-04-13 18:05:00,49.9,35.3,29.96,SW,221,6.0,6.0,57,0.00,,,0.00,Wunderground v.1.15,2013-04-13 23:05:00,
2013-04-13 18:15:00,50.0,36.7,29.96,WSW,249,4.0,5.0,60,0.00,,,0.00,Wunderground v.1.15,2013-04-13 23:15:00,
2013-04-13 18:20:00,49.9,37.0,29.95,SW,229,4.0,5.0,61,0.00,,,0.00,Wunderground v.1.15,2013-04-13 23:20:00,
2013-04-13 18:25:00,49.8,35.2,29.95,WSW,257,4.0,5.0,57,0.00,,,0.00,Wunderground v.1.15,2013-04-13 23:25:00,
2013-04-13 18:30:00,49.7,35.9,29.96,West,262,4.0,4.0,59,0.00,,,0.00,Wunderground v.1.15,2013-04-13 23:30:00,
2013-04-13 18:35:00,49.6,35.8,29.96,WSW,239,3.0,4.0,59,0.00,,,0.00,Wunderground v.1.15,2013-04-13 23:35:00,
2013-04-13 18:40:00,49.6,36.7,29.95,WSW,240,3.0,3.0,61,0.00,,,0.00,Wunderground v.1.15,2013-04-13 23:40:00,
2013-04-13 18:45:00,49.5,36.6,29.96,WSW,242,2.0,4.0,61,0.00,,,0.00,Wunderground v.1.15,2013-04-13 23:45:00,
2013-04-13 18:50:00,49.5,35.8,29.96,WSW,250,2.0,2.0,59,0.00,,,0.00,Wunderground v.1.15,2013-04-13 23:50:00,
2013-04-13 18:55:00,49.5,36.2,29.96,SW,235,2.0,2.0,60,0.00,,,0.00,Wunderground v.1.15,2013-04-13 23:55:00,
2013-04-13 19:00:00,49.3,37.6,29.96,SW,228,2.0,3.0,64,0.00,,,0.00,Wunderground v.1.15,2013-04-14 00:00:00,
2013-04-13 19:05:00,49.1,37.4,29.96,SW,219,3.0,3.0,64,0.00,,,0.00,Wunderground v.1.15,2013-04-14 00:05:00,
2013-04-13 19:10:00,49.0,36.9,29.96,SW,226,3.0,5.0,63,0.00,,,0.00,Wunderground v.1.15,2013-04-14 00:10:00,
2013-04-13 19:15:00,49.0,36.5,29.95,WSW,252,3.0,5.0,62,0.00,,,0.00,Wunderground v.1.15,2013-04-14 00:15:00,
2013-04-13 19:20:00,49.1,36.6,29.95,WSW,238,2.0,2.0,62,0.00,,,0.00,Wunderground v.1.15,2013-04-14 00:20:00,
2013-04-13 19:25:00,49.0,36.9,29.95,SW,222,1.0,2.0,63,0.00,,,0.00,Wunderground v.1.15,2013-04-14 00:25:00,
2013-04-13 19:30:00,48.8,36.8,29.94,SSW,213,2.0,7.0,63,0.00,,,0.00,Wunderground v.1.15,2013-04-14 00:30:00,
2013-04-13 19:35:00,48.7,37.8,29.95,SW,214,4.0,7.0,66,0.00,,,0.00,Wunderground v.1.15,2013-04-14 00:35:00,
2013-04-13 19:40:00,48.7,36.7,29.94,SSW,212,4.0,5.0,63,0.00,,,0.00,Wunderground v.1.15,2013-04-14 00:40:00,
2013-04-13 19:45:00,48.5,36.9,29.95,SSW,210,4.0,5.0,64,0.00,,,0.00,Wunderground v.1.15,2013-04-14 00:45:00,
2013-04-13 19:50:00,48.3,37.1,29.95,SW,217,4.0,5.0,65,0.00,,,0.00,Wunderground v.1.15,2013-04-14 00:50:00,
2013-04-13 19:55:00,48.4,36.8,29.95,SSW,210,4.0,5.0,64,0.00,,,0.00,Wunderground v.1.15,2013-04-14 00:55:00,
2013-04-13 20:00:00,48.3,37.1,29.95,SSW,205,2.0,2.0,65,0.00,,,0.00,Wunderground v.1.15,2013-04-14 01:00:00,
2013-04-13 20:05:00,48.1,36.5,29.95,SSE,158,2.0,2.0,64,0.00,,,0.00,Wunderground v.1.15,2013-04-14 01:05:00,
2013-04-13 20:10:00,48.2,38.1,29.94,SSE,167,2.0,2.0,68,0.00,,,0.00,Wunderground v.1.15,2013-04-14 01:10:00,
2013-04-13 20:15:00,48.1,37.7,29.94,SSE,166,2.0,3.0,67,0.00,,,0.00,Wunderground v.1.15,2013-04-14 01:15:00,
2013-04-13 20:25:00,47.7,38.0,29.94,SSE,155,3.0,3.0,69,0.00,,,0.00,Wunderground v.1.15,2013-04-14 01:25:00,
2013-04-13 20:30:00,47.7,38.4,29.94,SSE,154,3.0,3.0,70,0.00,,,0.00,Wunderground v.1.15,2013-04-14 01:30:00,
2013-04-13 20:35:00,47.6,37.6,29.94,SSE,166,2.0,3.0,68,0.00,,,0.00,Wunderground v.1.15,2013-04-14 01:35:00,
2013-04-13 20:40:00,47.5,37.8,29.94,South,184,2.0,2.0,69,0.00,,,0.00,Wunderground v.1.15,2013-04-14 01:40:00,
2013-04-13 20:45:00,47.4,37.4,29.94,South,184,2.0,2.0,68,0.00,,,0.00,Wunderground v.1.15,2013-04-14 01:45:00,
2013-04-13 20:55:00,47.3,37.6,29.95,SE,136,1.0,1.0,69,0.00,,,0.00,Wunderground v.1.15,2013-04-14 01:55:00,
2013-04-13 21:00:00,47.1,36.7,29.95,ESE,122,1.0,1.0,67,0.00,,,0.00,Wunderground v.1.15,2013-04-14 02:00:00,
2013-04-13 21:05:00,47.0,38.8,29.94,East,87,1.0,1.0,73,0.00,,,0.00,Wunderground v.1.15,2013-04-14 02:05:00,
2013-04-13 21:10:00,46.6,38.1,29.94,ESE,112,2.0,2.0,72,0.00,,,0.00,Wunderground v.1.15,2013-04-14 02:10:00,
2013-04-13 21:15:00,46.5,38.0,29.95,ESE,103,1.0,2.0,72,0.00,,,0.00,Wunderground v.1.15,2013-04-14 02:15:00,
2013-04-13 21:20:00,46.4,37.1,29.95,ESE,103,1.0,1.0,70,0.00,,,0.00,Wunderground v.1.15,2013-04-14 02:20:00,
2013-04-13 21:25:00,46.5,36.9,29.95,ESE,103,1.0,1.0,69,0.00,,,0.00,Wunderground v.1.15,2013-04-14 02:25:00,
2013-04-13 21:30:00,46.7,36.7,29.95,ESE,103,0.0,0.0,68,0.00,,,0.00,Wunderground v.1.15,2013-04-14 02:30:00,
2013-04-13 21:35:00,46.8,36.8,29.95,ESE,103,0.0,0.0,68,0.00,,,0.00,Wunderground v.1.15,2013-04-14 02:35:00,
2013-04-13 21:40:00,46.8,36.4,29.95,ESE,103,0.0,0.0,67,0.00,,,0.00,Wunderground v.1.15,2013-04-14 02:40:00,
2013-04-13 21:50:00,46.8,36.8,29.95,ENE,68,1.0,3.0,68,0.00,,,0.00,Wunderground v.1.15,2013-04-14 02:50:00,
2013-04-13 21:55:00,46.5,36.9,29.95,East,94,2.0,3.0,69,0.00,,,0.00,Wunderground v.1.15,2013-04-14 02:55:00,
2013-04-13 22:00:00,46.5,36.1,29.95,East,96,2.0,2.0,67,0.00,,,0.00,Wunderground v.1.15,2013-04-14 03:00:00,
2013-04-13 22:05:00,46.6,36.2,29.95,East,95,2.0,2.0,67,0.00,,,0.00,Wunderground v.1.15,2013-04-14 03:05:00,
2013-04-13 22:10:00,46.6,36.2,29.95,ESE,102,2.0,2.0,67,0.00,,,0.00,Wunderground v.1.15,2013-04-14 03:10:00,
2013-04-13 22:15:00,46.5,36.5,29.94,ESE,103,2.0,2.0,68,0.00,,,0.00,Wunderground v.1.15,2013-04-14 03:15:00,
2013-04-13 22:20:00,46.4,36.8,29.95,East,95,2.0,3.0,69,0.00,,,0.00,Wunderground v.1.15,2013-04-14 03:20:00,
2013-04-13 22:25:00,46.2,37.3,29.95,East,94,2.0,3.0,71,0.00,,,0.00,Wunderground v.1.15,2013-04-14 03:25:00,
2013-04-13 22:30:00,46.1,36.9,29.94,East,89,2.0,2.0,70,0.00,,,0.00,Wunderground v.1.15,2013-04-14 03:30:00,
2013-04-13 22:35:00,46.0,37.5,29.94,ENE,72,2.0,3.0,72,0.00,,,0.00,Wunderground v.1.15,2013-04-14 03:35:00,
2013-04-13 22:40:00,46.2,36.6,29.94,East,82,2.0,3.0,69,0.00,,,0.00,Wunderground v.1.15,2013-04-14 03:40:00,
2013-04-13 22:45:00,46.4,36.4,29.94,East,97,3.0,3.0,68,0.00,,,0.00,Wunderground v.1.15,2013-04-14 03:45:00,
2013-04-13 22:50:00,46.5,37.2,29.94,ESE,103,3.0,3.0,70,0.00,,,0.00,Wunderground v.1.15,2013-04-14 03:50:00,
2013-04-13 22:55:00,46.4,37.5,29.94,ENE,75,2.0,3.0,71,0.00,,,0.00,Wunderground v.1.15,2013-04-14 03:55:00,
2013-04-13 23:00:00,46.2,37.7,29.94,East,84,2.0,3.0,72,0.00,,,0.00,Wunderground v.1.15,2013-04-14 04:00:00,
2013-04-13 23:10:00,46.1,37.6,29.94,East,79,2.0,3.0,72,0.00,,,0.00,Wunderground v.1.15,2013-04-14 04:10:00,
2013-04-13 23:15:00,46.1,37.9,29.94,East,91,2.0,3.0,73,0.00,,,0.00,Wunderground v.1.15,2013-04-14 04:15:00,
2013-04-13 23:20:00,46.1,38.3,29.94,ESE,103,3.0,3.0,74,0.00,,,0.00,Wunderground v.1.15,2013-04-14 04:20:00,
2013-04-13 23:25:00,46.0,38.2,29.94,ESE,115,3.0,4.0,74,0.00,,,0.00,Wunderground v.1.15,2013-04-14 04:25:00,
2013-04-13 23:30:00,45.9,38.4,29.94,ESE,110,3.0,3.0,75,0.00,,,0.00,Wunderground v.1.15,2013-04-14 04:30:00,
2013-04-13 23:40:00,45.9,38.8,29.94,ESE,104,3.0,4.0,76,0.00,,,0.00,Wunderground v.1.15,2013-04-14 04:40:00,
2013-04-13 23:45:00,45.9,38.8,29.94,ESE,113,3.0,4.0,76,0.00,,,0.00,Wunderground v.1.15,2013-04-14 04:45:00,
2013-04-13 23:50:00,46.0,38.2,29.94,ESE,108,3.0,3.0,74,0.00,,,0.00,Wunderground v.1.15,2013-04-14 04:50:00,
2013-04-13 23:55:00,46.0,38.5,29.95,ESE,108,3.0,3.0,75,0.00,,,0.00,Wunderground v.1.15,2013-04-14 04:55:00,